STARLINK-37487, 69840

Orbit data source: Space-Track

STARLINK-37487, 69840 is a payload satellite owned by SpaceX/Seattle (US) in LEO that was launched on Sun, 05 Jul 2026 UTC via an FALCON 9 launch vehicle from the Air Force Eastern Test Range (AFETR). Payload-class satellites include a variety of spacecraft equipped with specific instruments for various scientific and technological missions. These include communications satellites like Starlink; space stations such as the ISS; scientific satellites like the Hubble; Earth observation satellites from companies like Planet Labs, Umbra, and HawkEye 360; GPS; miniature CubeSats for education and research; and military/defense satellites.

Loading next visibility...
Identifier
69840, 2026-154X
Orbit
LEO
Country
Flag of USUS
Related business
Manufacturer
SpaceX/Seattle
Mission
Operational spacecraft
Bus & Motor
STARLINK V2MO, Unknown motor
Mass
575 kg wet, ~530 kg dry
Launch date (UTC)
2026-07-05 (1 month ago)
Launch vehicle
FALCON 9
Launch site
Air Force Eastern Test Range (AFETR)
Object type
Payload
Rocket body
Debris
Shape & HBR
BOX + PAN, 17.7 m
Radar Cross Section
Large (>1 m²)

Expand to show TLE details & history
Last TLE update: 23 hours ago

TLE from 23 hours ago
0 STARLINK-37487
1 69840U 26154X   26228.14761400  .00012510  00000-0  36882-3 0  9997
2 69840  53.1610 136.7394 0001952 108.0525 252.0691 15.35411087  7812
Epoch: 2026-08-16T03:32Z
TLE epoch observation values (Epoch: 2026-08-16T03:32:33.849Z)
Latitude
-0.00001°
Longitude
119.05004°
Altitude
461.013 km
Speed
7.637 km/s
True Right ascension
09h 06m 57s
True Declination
0° 00' 00"
Sunlit
Object was in daylight at epoch
Visualization orbit readout
Latitude
Unknown
Longitude
Unknown
Altitude
Unknown
Speed
Unknown
Apparent Right ascension
Unknown
Apparent Declination
Unknown
Sunlit
N/A
Visualization observer readout
Local Sidereal Time
17:20:23
Azimuth
Unknown
Elevation
Unknown
Doppler factor
Unknown
Orbital elements
Apogee altitude
461.291 km
Perigee altitude
458.622 km
Semi-major axis
6,838.094 km
Eccentricity
0.0002
Inclination
53.161°
RAAN
136.7394°
Arg. of periapsis
108.0525°
True anomaly
252.04782°
Mean anomaly
252.0691°
Eccentric anomaly
252.05846°
Mean motion
3.83831 °/min
Orbital period
93.79 mins
BSTAR
0.00036882
Loading maneuver chart data...
Computing Atmospheric mass density...
Loading historical data...
Loading historical data...
Loading historical data...
Loading historical data...
Loading historical data...
Loading historical data...
Loading historical data...

Documentation

Showing up to 5 results
|